Time,TemperatureF,DewpointF,PressureIn,WindDirection,WindDirectionDegrees,WindSpeedMPH,WindSpeedGustMPH,Humidity,HourlyPrecipIn,Conditions,Clouds,dailyrainin,SolarRadiationWatts/m^2,SoftwareType,DateUTC
2013-12-24 00:01:00,39.0,39.0,-100.00,North,-999,0.0,4.0,100,0.00,,,0.10,0.000000,,2013-12-24 08:01:00,
2013-12-24 00:42:00,39.0,39.0,-100.00,NE,34,1.0,6.0,100,0.00,,,0.10,0.000000,,2013-12-24 08:42:00,
2013-12-24 00:52:00,39.0,39.0,-100.00,NE,34,1.0,6.0,100,0.00,,,0.10,0.000000,,2013-12-24 08:52:00,
2013-12-24 01:02:00,39.0,39.0,-100.00,NE,34,1.0,6.0,100,0.00,,,0.10,0.000000,,2013-12-24 09:02:00,
2013-12-24 01:43:00,39.0,39.0,-100.00,North,-999,0.0,6.0,100,0.00,,,0.10,0.000000,,2013-12-24 09:43:00,
2013-12-24 01:53:00,39.0,39.0,-100.00,North,-999,0.0,6.0,100,0.00,,,0.10,0.000000,,2013-12-24 09:53:00,
2013-12-24 02:03:00,39.0,39.0,-100.00,North,-999,0.0,6.0,100,0.00,,,0.10,0.000000,,2013-12-24 10:03:00,
2013-12-24 02:43:00,41.0,41.0,-100.00,ENE,60,1.0,9.0,100,0.00,,,0.10,0.000000,,2013-12-24 10:43:00,
2013-12-24 02:52:00,41.0,41.0,-100.00,ENE,60,1.0,9.0,100,0.00,,,0.10,0.000000,,2013-12-24 10:52:00,
2013-12-24 03:02:00,41.0,41.0,-100.00,ENE,60,1.0,9.0,100,0.00,,,0.10,0.000000,,2013-12-24 11:02:00,
2013-12-24 03:42:00,41.0,41.0,-100.00,ENE,59,5.0,10.0,100,0.00,,,0.10,0.000000,,2013-12-24 11:42:00,
2013-12-24 03:52:00,41.0,41.0,-100.00,ENE,59,5.0,10.0,100,0.00,,,0.10,0.000000,,2013-12-24 11:52:00,
2013-12-24 04:02:00,41.0,41.0,-100.00,ENE,59,5.0,10.0,100,0.00,,,0.10,0.000000,,2013-12-24 12:02:00,
2013-12-24 04:42:00,39.0,39.0,-100.00,East,79,3.0,10.0,100,0.00,,,0.10,0.000000,,2013-12-24 12:42:00,
2013-12-24 04:52:00,39.0,39.0,-100.00,East,79,3.0,10.0,100,0.00,,,0.10,0.000000,,2013-12-24 12:52:00,
2013-12-24 05:02:00,39.0,39.0,-100.00,East,79,3.0,10.0,100,0.00,,,0.10,0.000000,,2013-12-24 13:02:00,
2013-12-24 05:42:00,39.0,39.0,-100.00,ENE,75,3.0,8.0,100,0.00,,,0.10,0.000000,,2013-12-24 13:42:00,
2013-12-24 05:52:00,39.0,39.0,-100.00,ENE,75,3.0,8.0,100,0.00,,,0.10,0.000000,,2013-12-24 13:52:00,
2013-12-24 06:02:00,39.0,39.0,-100.00,ENE,75,3.0,8.0,100,0.00,,,0.10,0.000000,,2013-12-24 14:02:00,
2013-12-24 06:42:00,38.0,38.0,-100.00,North,-999,0.0,7.0,100,0.00,,,0.10,0.000000,,2013-12-24 14:42:00,
2013-12-24 06:52:00,38.0,38.0,-100.00,North,-999,0.0,7.0,100,0.00,,,0.10,0.000000,,2013-12-24 14:52:00,
2013-12-24 07:02:00,38.0,38.0,-100.00,North,-999,0.0,7.0,100,0.00,,,0.10,0.000000,,2013-12-24 15:02:00,
2013-12-24 07:43:00,36.0,36.0,-100.00,NE,47,1.0,7.0,100,0.01,,,0.10,0.000000,,2013-12-24 15:43:00,
2013-12-24 07:53:00,36.0,36.0,-100.00,NE,47,1.0,7.0,100,0.01,,,0.10,0.000000,,2013-12-24 15:53:00,
2013-12-24 08:03:00,36.0,36.0,-100.00,NE,47,1.0,7.0,100,0.01,,,0.10,0.000000,,2013-12-24 16:03:00,
2013-12-24 08:43:00,35.0,35.0,-100.00,North,-999,0.0,6.0,100,0.00,,,0.09,2.000000,,2013-12-24 16:43:00,
2013-12-24 08:53:00,35.0,35.0,-100.00,North,-999,0.0,6.0,100,0.00,,,0.09,2.000000,,2013-12-24 16:53:00,
2013-12-24 09:02:00,35.0,35.0,-100.00,North,-999,0.0,6.0,100,0.00,,,0.09,2.000000,,2013-12-24 17:02:00,
2013-12-24 09:42:00,38.0,38.0,-100.00,ENE,67,3.0,9.0,100,0.00,,,0.08,93.000000,,2013-12-24 17:42:00,
2013-12-24 09:52:00,38.0,38.0,-100.00,ENE,67,3.0,9.0,100,0.00,,,0.08,93.000000,,2013-12-24 17:52:00,
2013-12-24 10:01:00,38.0,38.0,-100.00,ENE,67,3.0,9.0,100,0.00,,,0.08,93.000000,,2013-12-24 18:01:00,
2013-12-24 10:42:00,41.0,41.0,-100.00,East,81,5.0,11.0,100,0.00,,,0.08,310.000000,,2013-12-24 18:42:00,
2013-12-24 10:52:00,41.0,41.0,-100.00,East,81,5.0,11.0,100,0.00,,,0.08,310.000000,,2013-12-24 18:52:00,
2013-12-24 11:01:00,41.0,41.0,-100.00,East,81,5.0,11.0,100,0.00,,,0.08,310.000000,,2013-12-24 19:01:00,
2013-12-24 11:42:00,46.0,46.0,-100.00,North,3,4.0,12.0,100,0.00,,,-99.99,374.000000,,2013-12-24 19:42:00,
2013-12-24 11:52:00,46.0,46.0,-100.00,North,3,4.0,12.0,100,0.00,,,-99.99,374.000000,,2013-12-24 19:52:00,
2013-12-24 12:01:00,46.0,46.0,-100.00,North,3,4.0,12.0,100,0.00,,,-99.99,374.000000,,2013-12-24 20:01:00,
2013-12-24 12:42:00,48.0,46.0,-100.00,ENE,78,3.0,11.0,93,0.00,,,0.08,409.000000,,2013-12-24 20:42:00,
2013-12-24 12:52:00,48.0,46.0,-100.00,ENE,78,3.0,11.0,93,0.00,,,0.08,409.000000,,2013-12-24 20:52:00,
2013-12-24 13:02:00,48.0,46.0,-100.00,ENE,78,3.0,11.0,93,0.00,,,0.08,409.000000,,2013-12-24 21:02:00,
2013-12-24 13:43:00,50.0,44.0,-100.00,NE,50,3.0,12.0,81,0.00,,,0.05,398.000000,,2013-12-24 21:43:00,
2013-12-24 13:53:00,50.0,44.0,-100.00,NE,50,3.0,12.0,81,0.00,,,0.05,398.000000,,2013-12-24 21:53:00,
2013-12-24 14:02:00,50.0,44.0,-100.00,NE,50,3.0,12.0,81,0.00,,,0.05,398.000000,,2013-12-24 22:02:00,
2013-12-24 14:43:00,51.0,43.0,-100.00,North,5,3.0,9.0,75,0.00,,,-99.99,338.000000,,2013-12-24 22:43:00,
2013-12-24 14:53:00,51.0,43.0,-100.00,North,5,3.0,9.0,75,0.00,,,-99.99,338.000000,,2013-12-24 22:53:00,
2013-12-24 15:02:00,51.0,43.0,-100.00,North,5,3.0,9.0,75,0.00,,,-99.99,338.000000,,2013-12-24 23:02:00,
2013-12-24 15:42:00,51.0,43.0,-100.00,North,-999,0.0,10.0,75,0.00,,,0.03,217.000000,,2013-12-24 23:42:00,
2013-12-24 15:53:00,51.0,43.0,-100.00,North,-999,0.0,10.0,75,0.00,,,0.03,217.000000,,2013-12-24 23:53:00,
2013-12-24 16:02:00,51.0,43.0,-100.00,North,-999,0.0,10.0,75,0.00,,,0.03,217.000000,,2013-12-25 00:02:00,
2013-12-24 16:42:00,48.0,42.0,-100.00,North,-999,0.0,5.0,80,0.00,,,-99.99,108.000000,,2013-12-25 00:42:00,
2013-12-24 16:52:00,48.0,42.0,-100.00,North,-999,0.0,5.0,80,0.00,,,-99.99,108.000000,,2013-12-25 00:52:00,
2013-12-24 17:02:00,48.0,42.0,-100.00,North,-999,0.0,5.0,80,0.00,,,-99.99,108.000000,,2013-12-25 01:02:00,
2013-12-24 17:42:00,42.0,42.0,-100.00,North,-999,0.0,3.0,99,0.00,,,0.01,14.000000,,2013-12-25 01:42:00,
2013-12-24 17:52:00,42.0,42.0,-100.00,North,-999,0.0,3.0,99,0.00,,,0.01,14.000000,,2013-12-25 01:52:00,
2013-12-24 18:01:00,42.0,42.0,-100.00,North,-999,0.0,3.0,99,0.00,,,0.01,14.000000,,2013-12-25 02:01:00,
2013-12-24 18:42:00,41.0,41.0,-100.00,North,-999,0.0,5.0,100,0.00,,,0.01,0.000000,,2013-12-25 02:42:00,
2013-12-24 18:53:00,41.0,41.0,-100.00,North,-999,0.0,5.0,100,0.00,,,0.01,0.000000,,2013-12-25 02:53:00,
2013-12-24 19:02:00,41.0,41.0,-100.00,North,-999,0.0,5.0,100,0.00,,,0.01,0.000000,,2013-12-25 03:02:00,
2013-12-24 19:43:00,38.0,38.0,-100.00,North,-999,0.0,8.0,100,0.00,,,0.01,0.000000,,2013-12-25 03:43:00,
2013-12-24 19:53:00,38.0,38.0,-100.00,North,-999,0.0,8.0,100,0.00,,,0.01,0.000000,,2013-12-25 03:53:00,
2013-12-24 20:03:00,38.0,38.0,-100.00,North,-999,0.0,8.0,100,0.00,,,0.01,0.000000,,2013-12-25 04:03:00,
2013-12-24 20:43:00,37.0,37.0,-100.00,North,-999,0.0,8.0,100,0.00,,,0.01,0.000000,,2013-12-25 04:43:00,
2013-12-24 20:53:00,37.0,37.0,-100.00,North,-999,0.0,8.0,100,0.00,,,0.01,0.000000,,2013-12-25 04:53:00,
2013-12-24 21:02:00,37.0,37.0,-100.00,North,-999,0.0,8.0,100,0.00,,,0.01,0.000000,,2013-12-25 05:02:00,
2013-12-24 21:43:00,37.0,37.0,-100.00,NE,54,2.0,7.0,100,0.00,,,0.01,0.000000,,2013-12-25 05:43:00,
2013-12-24 21:53:00,37.0,37.0,-100.00,NE,54,2.0,7.0,100,0.00,,,0.01,0.000000,,2013-12-25 05:53:00,
2013-12-24 22:02:00,37.0,37.0,-100.00,NE,54,2.0,7.0,100,0.00,,,0.01,0.000000,,2013-12-25 06:02:00,
2013-12-24 22:42:00,36.0,36.0,-100.00,North,-999,0.0,8.0,100,0.00,,,0.01,0.000000,,2013-12-25 06:42:00,
2013-12-24 22:52:00,36.0,36.0,-100.00,North,-999,0.0,8.0,100,0.00,,,0.01,0.000000,,2013-12-25 06:52:00,
2013-12-24 23:01:00,36.0,36.0,-100.00,North,-999,0.0,8.0,100,0.00,,,0.01,0.000000,,2013-12-25 07:01:00,
2013-12-24 23:42:00,34.0,34.0,-100.00,North,-999,0.0,5.0,100,0.00,,,0.01,0.000000,,2013-12-25 07:42:00,
2013-12-24 23:52:00,34.0,34.0,-100.00,North,-999,0.0,5.0,100,0.00,,,0.01,0.000000,,2013-12-25 07:52:00,